Погода в Зеленом Боре

Россия / Красноярский край     53°37′13″N   91°37′29″E
темп.,
°C
ветер,
м/с
пор.,
м/с
влажн.,
%
обл.,
%
осадки,
мм/ч
давл.,
гПа
погр.,
м
26 октября, вт
вт2601:00+7ююз236297 0.0 102042
04:00+6ююз336942 0.0 102033
07:00+5ю22725 0.0 102116
10:00+8юв23577 0.0 1019139
13:00+12вюв464327 0.0 1015501
16:00+11в2450100 0.0 1011131
19:00+8ююв1161100 0.0 101010
22:00+7ю2261100 0.0 101012
27 октября, ср
ср2701:00+6ююз386380 0.0 1011136
04:00+5юз3360100 0.0 101532
07:00+6юз51560100 0.0 1017353
10:00+8зюз81457100 0.0 10211398
13:00+7зюз81043100 0.0 10231204
16:00+7з4735100 0.0 10241224
19:00+3с1241100 0.0 102545
22:00+2св1150100 0.0 102622
28 октября, чт
чт2801:00+1с1150100 0.0 102716
04:00−1ссз1150100 0.0 102812
07:00−2ссв115498 0.0 103010
10:00+1вюв114366 0.0 1030185
13:00+3ююв1140100 0.0 1029622
16:00+4юв0145100 0.0 1028539
19:00+1в0054100 0.0 102910
22:000ю01625 0.0 102910
29 октября, пт
пт2901:00−1ююв11735 0.0 102910
04:00−2ююв11795 0.0 102910
07:00−2ююв11845 0.0 102910
10:00+2ююв12755 0.0 1029149
13:00+6ю23626 0.0 1028384
16:00+7ююз2362100 0.0 102780
19:00+3ююв227618 0.0 102814
22:00+2ююв22825 0.0 102817
30 октября, сб
сб3001:00+2ююв228325 0.0 102812
04:00+1ююв228552 0.0 102710
07:00+1ю118396 0.0 102710
10:00+4ю226982 0.0 1027102
13:00+8ююз3549100 0.0 1025366
16:00+9юз3747100 0.0 1025272
19:00+7зсз51064100 0.0 1027468
22:00+5зюз61157100 0.0 1028800